Weather in Talitsa

Russia / Sverdlovsk Oblast     56°50′20″N   58°46′10″E
temp.,
°C
wind,
m/s
gust,
m/s
humid.,
%
clouds,
%
prec.,
mm/h
press.,
hPa
HPBL,
m
23 april, fri
fri2323:00+5sw4988100 0.1 1031840
02:00+2ssw51393100 0.9 1031879
05:00+2s3997100 4.0 1031417
08:00+3ssw3797100 0.5 1031701
11:00+3sw2697100 0.7 1031665
14:00+4ssw3590100 0.1 1031661
17:00+5s238299 0.1 1031670
20:00+4e1189100 0.0 103032
24 april, sat
sat2423:00+2ene1192100 0.0 102911
02:00+4e3890100 0.0 1026230
05:00+4e3793100 0.0 1024198
08:00+6ese3891100 0.0 1022648
11:00+6ese3794100 0.6 1021936
14:00+6ese4791100 0.3 1019918
17:00+5ese4995100 0.9 1019760
20:00+4ese4897100 0.6 1018718
25 april, sun
sun2523:00+5ese41092100 1.1 1016700
02:00+3se2791100 0.0 1015357
05:00+3se41090100 0.0 1014602
08:00+3se41197100 0.8 1013736
11:00+3sse4996100 1.1 1012640
14:00+8sse4876100 0.1 10101066
17:00+5sw5108693 2.8 1011866
20:00+4sw118777 0.2 101212
26 april, mon
mon2623:00+3sw3994100 0.5 1013422
02:00+2sw51096100 0.8 1013691
05:00+1wsw3997100 1.1 1014630
08:00+3wsw4108958 0.1 1016729
11:00+6wsw6106347 0.4 10171573
14:00+8wsw71047100 0.5 10162453
17:00+8wsw6115447 0.7 10171948
20:00+6sw386688 0.1 1017357
27 april, tue
tue2723:00+3ssw21078100 0.1 1016243
02:00+2ssw277999 0.0 1015157
05:00+1s228089 0.0 101427
08:00+5s24637 0.0 1013174
11:00+9sw33445 0.0 10121427
14:00+11wsw23375 0.0 10101920
17:00+11sw34378 0.0 10082068
20:00+8ssw225589 0.0 100819